GW3011 Weather Reports


time (UTC)temp
F
wind
direction
speed
knots
gust
knots
rain 1hr
in
rain 24hr
in
rain mn
in
humidity
%
barometer
mb
20260906063801 69 179 0.0 0.0 0.00 0.00 0.00 80 1011.5
20260906063257 70 206 0.0 0.0 0.00 0.00 0.00 80 1011.4
20260906062752 70 270 0.0 0.0 0.00 0.00 0.00 78 1011.6
20260906062251 70 271 0.0 0.0 0.00 0.00 0.00 77 1011.4
20260906061747 70 271 0.0 0.0 0.00 0.00 0.00 76 1011.6
20260906061243 70 179 0.0 0.0 0.00 0.00 0.00 76 1011.6
20260906060738 70 182 0.0 0.0 0.00 0.00 0.00 76 1011.6
20260906060236 71 271 0.0 0.0 0.00 0.00 0.00 75 1011.8
20260906055731 70 288 0.0 0.0 0.00 0.00 0.00 76 1011.6
20260906055226 70 86 0.0 0.0 0.00 0.00 0.00 76 1011.8
20260906054721 70 65 0.0 0.0 0.00 0.00 0.00 77 1011.5
20260906054216 70 50 0.0 0.0 0.00 0.00 0.00 77 1011.8
20260906053713 70 49 0.0 0.0 0.00 0.00 0.00 77 1011.6
20260906053208 69 48 0.0 0.0 0.00 0.00 0.00 77 1012.0
20260906052703 70 63 0.0 0.0 0.00 0.00 0.00 76 1011.8
20260906052159 70 63 0.0 0.0 0.00 0.00 0.00 76 1011.9
20260906051656 70 101 0.0 0.0 0.00 0.00 0.00 76 1011.8
20260906051155 70 101 0.0 0.0 0.00 0.00 0.00 75 1011.7
20260906050651 71 264 0.0 0.0 0.00 0.00 0.00 74 1011.7
20260906050146 71 151 0.0 0.0 0.00 0.00 0.00 74 1011.8
20260906045644 71 146 0.0 0.0 0.00 0.00 0.00 74 1011.8
20260906045140 71 189 0.0 0.0 0.00 0.00 0.00 74 1011.9
20260906044636 71 228 0.0 0.0 0.00 0.00 0.00 74 1012.0
20260906044131 71 210 0.0 0.0 0.00 0.00 0.00 73 1012.0
20260906043627 71 153 0.0 0.0 0.00 0.00 0.00 73 1012.0
20260906043122 71 199 0.0 0.0 0.00 0.00 0.00 74 1011.7
20260906042621 71 156 0.0 0.0 0.00 0.00 0.00 74 1011.6
20260906042115 71 186 0.0 0.0 0.00 0.00 0.00 74 1011.8
20260906041612 71 240 0.0 0.0 0.00 0.00 0.00 74 1011.4
20260906041111 71 270 0.0 0.0 0.00 0.00 0.00 74 1011.5
20260906040607 71 175 0.0 0.0 0.00 0.00 0.00 73 1011.8
20260906035557 72 278 0.0 0.0 0.00 0.00 0.00 73 1011.8
20260906035053 72 307 0.0 0.0 0.00 0.00 0.00 72 1011.9
20260906034548 72 177 0.0 0.0 0.00 0.00 0.00 71 1012.0
20260906034042 72 348 0.0 0.0 0.00 0.00 0.00 71 1011.8
20260906033538 72 184 0.0 0.0 0.00 0.00 0.00 70 1011.9
20260906033028 72 211 0.0 0.0 0.00 0.00 0.00 70 1011.7
20260906032524 72 200 0.0 0.0 0.00 0.00 0.00 70 1011.7
20260906032018 72 210 0.0 0.0 0.00 0.00 0.00 69 1011.7
20260906031514 72 238 0.0 0.0 0.00 0.00 0.00 69 1011.5
20260906031010 73 170 0.0 0.0 0.00 0.00 0.00 68 1011.4
20260906030509 73 187 0.0 0.0 0.00 0.00 0.00 68 1011.5
20260906030008 73 219 0.0 0.0 0.00 0.00 0.00 67 1011.6
20260906025508 73 211 0.0 0.0 0.00 0.00 0.00 67 1011.6
20260906025006 73 251 0.0 0.0 0.00 0.00 0.00 67 1011.3
20260906024501 73 276 0.0 0.0 0.00 0.00 0.00 67 1011.4
20260906023956 73 231 0.0 0.0 0.00 0.00 0.00 67 1011.4
20260906023452 73 140 0.0 0.0 0.00 0.00 0.00 67 1011.5
20260906022952 74 182 0.0 0.0 0.00 0.00 0.00 65 1011.6
20260906022443 74 203 0.0 0.0 0.00 0.00 0.00 66 1011.4
20260906021937 74 159 0.0 0.0 0.00 0.00 0.00 66 1011.5
20260906021432 74 191 0.0 0.0 0.00 0.00 0.00 66 1011.4
20260906020932 74 188 0.0 0.0 0.00 0.00 0.00 66 1011.4
20260906020426 74 190 0.0 0.0 0.00 0.00 0.00 66 1011.5
20260906015921 74 187 0.0 0.0 0.00 0.00 0.00 66 1011.4
20260906015420 74 181 0.0 0.0 0.00 0.00 0.00 65 1011.4
20260906014915 75 211 0.0 0.0 0.00 0.00 0.00 65 1011.1
20260906014414 75 226 0.0 0.0 0.00 0.00 0.00 65 1011.1
20260906013911 75 206 0.0 0.0 0.00 0.00 0.00 64 1011.2
20260906013406 75 305 0.0 0.0 0.00 0.00 0.00 64 1011.0
20260906012902 75 266 0.0 0.0 0.00 0.00 0.00 63 1011.1
20260906012356 75 176 0.0 0.0 0.00 0.00 0.00 62 1010.8
20260906011855 75 174 0.0 0.0 0.00 0.00 0.00 62 1011.0
20260906011350 75 204 0.0 0.0 0.00 0.00 0.00 61 1011.2
20260906010846 75 224 0.0 0.0 0.00 0.00 0.00 61 1011.0
20260906010342 75 232 0.0 0.0 0.00 0.00 0.00 61 1010.9
20260906005838 75 217 0.0 0.0 0.00 0.00 0.00 62 1010.7
20260906005337 76 206 0.0 0.0 0.00 0.00 0.00 62 1010.6
20260906004836 76 197 0.0 0.0 0.00 0.00 0.00 61 1010.8
20260906004336 76 255 0.0 0.0 0.00 0.00 0.00 60 1010.9
20260906003831 76 213 0.0 0.0 0.00 0.00 0.00 60 1010.7
20260906003326 76 198 0.0 0.0 0.00 0.00 0.00 59 1010.6
20260906002822 76 156 0.0 0.0 0.00 0.00 0.00 59 1010.5
20260906002321 76 196 0.0 0.0 0.00 0.00 0.00 59 1010.3
20260906001817 76 212 0.0 0.0 0.00 0.00 0.00 58 1010.3
20260906001312 76 166 0.0 0.0 0.00 0.00 0.00 61 1010.3
20260906000808 77 202 0.0 0.0 0.00 0.00 0.00 58 1010.3
20260906000303 77 223 0.0 0.0 0.00 0.00 0.00 58 1010.0
20260905235757 76 226 0.0 0.0 0.00 0.00 0.00 58 1010.0
20260905235257 77 185 0.0 0.0 0.00 0.00 0.00 59 1010.1
20260905234752 77 168 0.0 0.0 0.00 0.00 0.00 58 1010.0
20260905234247 77 217 0.0 0.0 0.00 0.00 0.00 59 1009.6
20260905233742 77 197 0.0 0.0 0.00 0.00 0.00 60 1009.8
20260905233241 77 185 0.0 0.0 0.00 0.00 0.00 59 1010.0
20260905232736 77 191 0.0 0.0 0.00 0.00 0.00 59 1009.8
20260905232232 77 186 0.0 0.0 0.00 0.00 0.00 58 1010.1
20260905231728 77 196 0.0 0.0 0.00 0.00 0.00 58 1010.1
20260905231223 77 213 0.0 0.0 0.00 0.00 0.00 57 1010.1
20260905230719 77 223 0.0 0.0 0.00 0.00 0.00 58 1010.1
20260905230216 77 186 0.0 0.0 0.00 0.00 0.00 56 1010.1
20260905225711 77 205 0.0 0.0 0.00 0.00 0.00 56 1009.9
20260905225206 77 190 0.0 0.0 0.00 0.00 0.00 55 1010.0
20260905224705 78 225 0.0 0.0 0.00 0.00 0.00 55 1009.9
20260905224201 78 195 0.0 0.0 0.00 0.00 0.00 55 1010.0
20260905223657 78 215 0.0 0.0 0.00 0.00 0.00 54 1009.6
20260905223154 78 253 0.0 0.0 0.00 0.00 0.00 55 1009.7
20260905222648 78 227 0.0 0.0 0.00 0.00 0.00 53 1009.9
20260905222143 78 240 0.0 0.0 0.00 0.00 0.00 54 1010.0
20260905221638 78 201 0.0 0.0 0.00 0.00 0.00 55 1009.6
20260905221135 78 201 0.0 0.0 0.00 0.00 0.00 54 1009.6
20260905220631 79 211 0.0 0.0 0.00 0.00 0.00 54 1009.6
20260905220127 79 223 0.0 0.0 0.00 0.00 0.00 53 1009.4
20260905215626 79 225 0.0 0.0 0.00 0.00 0.00 52 1009.6
20260905215122 79 150 0.0 0.0 0.00 0.00 0.00 52 1009.4
20260905214618 79 250 0.0 0.0 0.00 0.00 0.00 54 1009.5
20260905214118 79 219 0.0 0.0 0.00 0.00 0.00 53 1009.5
20260905213613 79 197 0.0 0.0 0.00 0.00 0.00 53 1009.6
20260905213108 79 238 0.0 0.0 0.00 0.00 0.00 53 1009.7
20260905212603 79 174 0.0 0.0 0.00 0.00 0.00 53 1009.6
20260905212102 80 144 0.0 0.0 0.00 0.00 0.00 54 1009.3
20260905211558 80 215 0.0 0.0 0.00 0.00 0.00 52 1009.3
20260905211053 81 217 0.0 0.0 0.00 0.00 0.00 52 1009.3
20260905210549 80 217 0.0 0.0 0.00 0.00 0.00 51 1009.4
20260905210043 79 224 0.0 0.0 0.00 0.00 0.00 53 1009.5
20260905205542 79 246 0.0 0.0 0.00 0.00 0.00 52 1009.6
20260905205037 80 223 0.0 0.0 0.00 0.00 0.00 53 1009.5
20260905204532 80 209 0.0 0.0 0.00 0.00 0.00 51 1009.2
20260905204027 80 227 0.0 0.0 0.00 0.00 0.00 51 1009.5
20260905203526 80 164 0.0 0.0 0.00 0.00 0.00 54 1009.4
20260905203022 80 172 0.0 0.0 0.00 0.00 0.00 54 1009.2
20260905202517 79 205 0.0 0.0 0.00 0.00 0.00 53 1009.2
20260905202012 79 213 0.0 0.0 0.00 0.00 0.00 53 1009.1
20260905201508 81 189 0.0 0.0 0.00 0.00 0.00 53 1009.2
20260905201002 81 200 0.0 0.0 0.00 0.00 0.00 51 1009.3
20260905200458 80 220 0.0 0.0 0.00 0.00 0.00 51 1009.3
20260905195956 79 78 0.0 0.0 0.00 0.00 0.00 55 1009.3
20260905195451 79 173 0.0 0.0 0.00 0.00 0.00 53 1009.2
20260905194947 79 203 0.0 0.0 0.00 0.00 0.00 55 1009.4
20260905194446 79 203 0.0 0.0 0.00 0.00 0.00 53 1009.4
20260905193941 79 230 0.0 0.0 0.00 0.00 0.00 52 1009.4
20260905193441 80 264 0.0 0.0 0.00 0.00 0.00 51 1009.4
20260905192936 81 240 0.0 0.0 0.00 0.00 0.00 52 1009.3
20260905192431 82 227 0.0 0.0 0.00 0.00 0.00 50 1009.4
20260905191926 82 213 0.0 0.0 0.00 0.00 0.00 52 1009.3
20260905191425 84 140 0.0 0.0 0.00 0.00 0.00 49 1009.5
20260905190920 83 131 0.0 0.0 0.00 0.00 0.00 49 1009.3
20260905190418 80 194 0.0 0.0 0.00 0.00 0.00 51 1009.5
20260905185917 81 157 0.0 0.0 0.00 0.00 0.00 51 1009.5
20260905185412 82 225 0.0 0.0 0.00 0.00 0.00 51 1009.7
20260905184910 82 204 0.0 0.0 0.00 0.00 0.00 51 1009.5
20260905184405 82 213 0.0 0.0 0.00 0.00 0.00 52 1009.4
20260905183903 81 156 0.0 0.0 0.00 0.00 0.00 51 1009.4
20260905183359 82 184 0.0 0.0 0.00 0.00 0.00 52 1009.5
20260905182854 81 196 0.0 0.0 0.00 0.00 0.00 50 1009.7
20260905182352 80 203 0.0 0.0 0.00 0.00 0.00 52 1009.6
20260905181843 80 188 0.0 0.0 0.00 0.00 0.00 52 1009.9
20260905181343 80 204 0.0 0.0 0.00 0.00 0.00 54 1009.7
20260905180842 81 183 0.0 0.0 0.00 0.00 0.00 53 1009.9
20260905180337 82 169 0.0 0.0 0.00 0.00 0.00 52 1010.0
20260905175831 82 112 0.0 0.0 0.00 0.00 0.00 51 1010.2
20260905175326 80 218 0.0 0.0 0.00 0.00 0.00 52 1009.6
20260905174821 80 178 0.0 0.0 0.00 0.00 0.00 53 1010.1
20260905174317 79 187 0.0 0.0 0.00 0.00 0.00 53 1009.7
20260905173813 78 181 0.0 0.0 0.00 0.00 0.00 56 1009.8
20260905173308 80 222 0.0 0.0 0.00 0.00 0.00 55 1010.0
20260905172808 80 149 0.0 0.0 0.00 0.00 0.00 52 1010.1
20260905172306 82 163 0.0 0.0 0.00 0.00 0.00 50 1009.8
20260905171802 80 228 0.0 0.0 0.00 0.00 0.00 53 1010.5
20260905171259 79 140 0.0 0.0 0.00 0.00 0.00 55 1010.1
20260905170755 80 203 0.0 0.0 0.00 0.00 0.00 52 1009.9
20260905170250 79 234 0.0 0.0 0.00 0.00 0.00 54 1010.1
20260905165750 80 240 0.0 0.0 0.00 0.00 0.00 53 1010.1
20260905165246 80 125 0.0 0.0 0.00 0.00 0.00 53 1010.3
20260905164746 80 170 0.0 0.0 0.00 0.00 0.00 55 1010.1
20260905164241 80 219 0.0 0.0 0.00 0.00 0.00 52 1010.2
20260905163736 79 229 0.0 0.0 0.00 0.00 0.00 53 1010.2
20260905163233 80 175 0.0 0.0 0.00 0.00 0.00 55 1010.1
20260905162728 80 215 0.0 0.0 0.00 0.00 0.00 54 1010.1
20260905162227 79 108 0.0 0.0 0.00 0.00 0.00 55 1010.1
20260905161722 78 167 0.0 0.0 0.00 0.00 0.00 57 1010.1
20260905161220 77 200 0.0 0.0 0.00 0.00 0.00 60 1010.2
20260905160719 78 228 0.0 0.0 0.00 0.00 0.00 59 1010.1
20260905160214 77 203 0.0 0.0 0.00 0.00 0.00 60 1010.2
20260905155714 77 204 0.0 0.0 0.00 0.00 0.00 59 1010.0
20260905155213 77 168 0.0 0.0 0.00 0.00 0.00 59 1010.0
20260905154707 77 175 0.0 0.0 0.00 0.00 0.00 61 1010.2
20260905154203 78 165 0.0 0.0 0.00 0.00 0.00 59 1009.9
20260905153654 79 223 0.0 0.0 0.00 0.00 0.00 57 1010.2
20260905153148 81 147 0.0 0.0 0.00 0.00 0.00 55 1010.1
20260905152643 78 338 0.0 0.0 0.00 0.00 0.00 56 1009.9
20260905152138 76 194 0.0 0.0 0.00 0.00 0.00 59 1010.0
20260905151632 75 174 0.0 0.0 0.00 0.00 0.00 62 1010.1
20260905151123 75 227 0.0 0.0 0.00 0.00 0.00 62 1010.3
20260905150618 75 196 0.0 0.0 0.00 0.00 0.00 62 1009.9
20260905150115 75 214 0.0 0.0 0.00 0.00 0.00 61 1010.0
20260905145609 75 213 0.0 0.0 0.00 0.00 0.00 61 1009.9
20260905145108 76 216 0.0 0.0 0.00 0.00 0.00 63 1009.9
20260905144603 76 191 0.0 0.0 0.00 0.00 0.00 63 1010.2
20260905144102 77 265 0.0 0.0 0.00 0.00 0.00 61 1010.1
20260905143601 78 177 0.0 0.0 0.00 0.00 0.00 60 1010.1
20260905143057 77 200 0.0 0.0 0.00 0.00 0.00 61 1009.9
20260905142555 77 190 0.0 0.0 0.00 0.00 0.00 61 1010.0
20260905142050 77 141 0.0 0.0 0.00 0.00 0.00 61 1009.8
20260905141545 78 153 0.0 0.0 0.00 0.00 0.00 62 1010.0
20260905141041 77 180 0.0 0.0 0.00 0.00 0.00 62 1009.9
20260905140536 77 169 0.0 0.0 0.00 0.00 0.00 61 1009.8
20260905140035 78 138 0.0 0.0 0.00 0.00 0.00 60 1009.8
20260905135530 80 217 0.0 0.0 0.00 0.00 0.00 60 1009.8
20260905135025 78 239 0.0 0.0 0.00 0.00 0.00 60 1009.9
20260905134520 77 189 0.0 0.0 0.00 0.00 0.00 62 1009.8
20260905134019 77 168 0.0 0.0 0.00 0.00 0.00 61 1009.9
20260905133514 76 221 0.0 0.0 0.00 0.00 0.00 62 1010.0
20260905133014 76 214 0.0 0.0 0.00 0.00 0.00 62 1010.0
20260905132514 77 241 0.0 0.0 0.00 0.00 0.00 62 1009.7
20260905132009 77 118 0.0 0.0 0.00 0.00 0.00 62 1010.0
20260905131504 76 206 0.0 0.0 0.00 0.00 0.00 62 1010.1
20260905130959 76 249 0.0 0.0 0.00 0.00 0.00 62 1009.9
20260905130459 76 169 0.0 0.0 0.00 0.00 0.00 63 1010.4
20260905125958 76 213 0.0 0.0 0.00 0.00 0.00 63 1010.2
20260905125453 76 178 0.0 0.0 0.00 0.00 0.00 63 1010.3
20260905124949 76 254 0.0 0.0 0.00 0.00 0.00 63 1010.4
20260905124445 75 176 0.0 0.0 0.00 0.00 0.00 65 1010.4
20260905123940 75 170 0.0 0.0 0.00 0.00 0.00 65 1010.1
20260905123436 75 166 0.0 0.0 0.00 0.00 0.00 65 1010.4
20260905122931 74 185 0.0 0.0 0.00 0.00 0.00 66 1010.5
20260905122431 74 213 0.0 0.0 0.00 0.00 0.00 66 1010.8
20260905121927 74 207 0.0 0.0 0.00 0.00 0.00 65 1010.5
20260905121422 74 188 0.0 0.0 0.00 0.00 0.00 65 1010.4
20260905120916 73 135 0.0 0.0 0.00 0.00 0.00 68 1010.4
20260905120415 74 143 0.0 0.0 0.00 0.00 0.00 67 1010.5
20260905115910 73 124 0.0 0.0 0.00 0.00 0.00 71 1010.5
20260905115409 72 188 0.0 0.0 0.00 0.00 0.00 69 1010.6
20260905114859 72 150 0.0 0.0 0.00 0.00 0.00 70 1010.5
20260905114359 72 162 0.0 0.0 0.00 0.00 0.00 70 1010.4
20260905113858 72 139 0.0 0.0 0.00 0.00 0.00 72 1010.2
20260905113353 71 166 0.0 0.0 0.00 0.00 0.00 69 1010.2
20260905112848 71 149 0.0 0.0 0.00 0.00 0.00 72 1010.2
20260905112343 71 139 0.0 0.0 0.00 0.00 0.00 72 1010.3
20260905111838 71 134 0.0 0.0 0.00 0.00 0.00 71 1010.1
20260905111333 71 138 0.0 0.0 0.00 0.00 0.00 70 1009.9
20260905110832 72 158 0.0 0.0 0.00 0.00 0.00 71 1009.9
20260905110326 71 184 0.0 0.0 0.00 0.00 0.00 70 1009.8
20260905105822 72 181 0.0 0.0 0.00 0.00 0.00 70 1009.9
20260905105321 71 141 0.0 0.0 0.00 0.00 0.00 73 1009.8
20260905104815 71 142 0.0 0.0 0.00 0.00 0.00 70 1009.6
20260905104312 71 150 0.0 0.0 0.00 0.00 0.00 70 1009.6
20260905103811 71 158 0.0 0.0 0.00 0.00 0.00 70 1009.6
20260905103307 71 139 0.0 0.0 0.00 0.00 0.00 71 1009.6
20260905102803 71 191 0.0 0.0 0.00 0.00 0.00 70 1009.2
20260905102259 71 154 0.0 0.0 0.00 0.00 0.00 72 1009.2
20260905101758 71 182 0.0 0.0 0.00 0.00 0.00 69 1009.3
20260905101257 71 193 0.0 0.0 0.00 0.00 0.00 69 1009.3
20260905100751 71 158 0.0 0.0 0.00 0.00 0.00 69 1009.3
20260905100248 71 204 0.0 0.0 0.00 0.00 0.00 69 1009.6
20260905095742 72 184 0.0 0.0 0.00 0.00 0.00 69 1009.4
20260905095241 72 209 0.0 0.0 0.00 0.00 0.00 69 1009.6
20260905094736 72 162 0.0 0.0 0.00 0.00 0.00 69 1009.5
20260905094232 72 152 0.0 0.0 0.00 0.00 0.00 68 1009.3
20260905093731 72 203 0.0 0.0 0.00 0.00 0.00 68 1009.4
20260905093227 72 176 0.0 0.0 0.00 0.00 0.00 68 1009.3
20260905092722 73 190 0.0 0.0 0.00 0.00 0.00 68 1009.3
20260905092217 73 203 0.0 0.0 0.00 0.00 0.00 68 1009.3
20260905091716 73 185 0.0 0.0 0.00 0.00 0.00 67 1009.2
20260905091212 73 172 0.0 0.0 0.00 0.00 0.00 67 1009.1
20260905090711 73 154 0.0 0.0 0.00 0.00 0.00 69 1009.0
20260905090207 73 157 0.0 0.0 0.00 0.00 0.00 67 1009.3
20260905085706 73 199 0.0 0.0 0.00 0.00 0.00 66 1009.2
20260905085201 73 163 0.0 0.0 0.00 0.00 0.00 67 1009.0
20260905084700 73 210 0.0 0.0 0.00 0.00 0.00 66 1009.2
20260905084149 73 156 0.0 0.0 0.00 0.00 0.00 68 1009.3
20260905083644 73 197 0.0 0.0 0.00 0.00 0.00 65 1009.2
20260905083141 73 138 0.0 0.0 0.00 0.00 0.00 67 1009.1
20260905082637 73 184 0.0 0.0 0.00 0.00 0.00 65 1009.2
20260905082131 73 207 0.0 0.0 0.00 0.00 0.00 65 1009.2
20260905081631 74 218 0.0 0.0 0.00 0.00 0.00 64 1009.4
20260905081126 73 143 0.0 0.0 0.00 0.00 0.00 64 1009.0
20260905080621 73 164 0.0 0.0 0.00 0.00 0.00 64 1009.2
20260905080120 74 215 0.0 0.0 0.00 0.00 0.00 64 1009.0
20260905075619 74 252 0.0 0.0 0.00 0.00 0.00 64 1009.1
20260905075114 74 232 0.0 0.0 0.00 0.00 0.00 64 1009.4
20260905074613 74 226 0.0 0.0 0.00 0.00 0.00 64 1009.3
20260905074109 74 225 0.0 0.0 0.00 0.00 0.00 63 1009.3
20260905073604 74 195 0.0 0.0 0.00 0.00 0.00 62 1009.1
20260905073100 74 197 0.0 0.0 0.00 0.00 0.00 62 1009.2
20260905072559 74 230 0.0 0.0 0.00 0.00 0.00 62 1009.3
20260905072055 74 203 0.0 0.0 0.00 0.00 0.00 62 1009.4
20260905071551 75 203 0.0 0.0 0.00 0.00 0.00 61 1009.1
20260905071046 75 170 0.0 0.0 0.00 0.00 0.00 63 1009.3
20260905070541 75 191 0.0 0.0 0.00 0.00 0.00 61 1009.2
20260905070037 75 194 0.0 0.0 0.00 0.00 0.00 62 1009.3
20260905065535 75 222 0.0 0.0 0.00 0.00 0.00 61 1009.4
20260905065030 75 207 0.0 0.0 0.00 0.00 0.00 62 1009.2
20260905064530 75 194 0.0 0.0 0.00 0.00 0.00 62 1009.4